contact:dominique.lefevre@mio.osupytheas.fr, maurice.libes@osupytheas.fr, didier.mallarino@osupytheas.fr
Project:EMSO http://www.emso-fr.org/EMSO-France
Depth: 2436.0 m
Title:EMSO Ligure Ouest : Data MII capteur AQUADOPP
Date,Latitude,Longitude,X_East,Y_North,Z_Up,Amplitude_X,Amplitude_Y,Amplitude_Z,Batterie,SoundSpeed,Heading,Pitch,Roll,Pressure,TIS,Speed,Direction
, degrees North, degrees East, m.s-1, m.s-1,m.s-1, 1, 1, 1, Volt, m.s-1, degree, degree, degree, dbar, degree_C, m.s-1, degree
2021-08-22T00:04:03,42.805,6.029,-0.009,0.006,-0.015,100.0,101.0,100.0,13.3,1505.2,325.5,-0.7,1.8,2470.569,13.28,0.01,303.7
2021-08-22T00:07:03,42.805,6.029,0.006,0.014,0.015,100.0,101.0,99.0,13.3,1505.2,330.5,-0.7,1.8,2470.586,13.28,0.015,23.2
2021-08-22T00:10:03,42.805,6.029,-0.009,0.015,0.024,100.0,102.0,99.0,13.4,1505.2,330.0,-0.8,1.8,2470.588,13.28,0.017,329.0
2021-08-22T00:13:03,42.805,6.029,-0.001,0.003,-0.012,100.0,101.0,100.0,13.4,1505.2,328.9,-0.7,1.8,2470.567,13.28,0.003,341.6
2021-08-22T00:16:03,42.805,6.029,-0.017,0.007,-0.02,99.0,103.0,100.0,13.4,1505.2,329.3,-0.8,1.8,2470.594,13.28,0.018,292.4
2021-08-22T00:19:03,42.805,6.029,0.011,0.009,0.002,100.0,102.0,99.0,13.4,1505.2,328.2,-0.8,1.8,2470.585,13.28,0.014,50.7
2021-08-22T00:22:03,42.805,6.029,-0.006,0.018,0.016,98.0,102.0,101.0,13.4,1505.2,327.5,-0.8,1.8,2470.561,13.28,0.018,341.6
2021-08-22T00:25:03,42.805,6.029,-0.018,0.015,0.004,101.0,99.0,100.0,13.4,1505.2,330.3,-0.7,1.8,2470.559,13.28,0.023,309.8
2021-08-22T00:28:03,42.805,6.029,0.021,0.001,-0.01,100.0,101.0,99.0,13.4,1505.2,328.3,-0.7,1.8,2470.569,13.28,0.021,87.3
2021-08-22T00:31:03,42.805,6.029,0.02,-0.007,-0.004,100.0,102.0,100.0,13.4,1505.2,330.7,-0.8,1.8,2470.576,13.28,0.021,109.3
2021-08-22T00:34:03,42.805,6.029,-0.008,0.02,-0.02,99.0,100.0,100.0,13.3,1505.2,329.7,-0.7,1.8,2470.556,13.28,0.021,338.2
2021-08-22T00:37:03,42.805,6.029,-0.005,0.016,-0.03,99.0,102.0,101.0,13.3,1505.2,329.6,-0.8,1.8,2470.574,13.28,0.016,342.6
2021-08-22T00:40:03,42.805,6.029,-0.005,0.004,-0.038,100.0,102.0,100.0,13.3,1505.2,327.5,-0.8,1.8,2470.564,13.28,0.006,308.7
2021-08-22T00:43:03,42.805,6.029,0.031,0.021,0.031,100.0,102.0,99.0,13.4,1505.2,327.2,-0.7,1.8,2470.561,13.28,0.037,55.9
2021-08-22T00:46:03,42.805,6.029,-0.004,0.025,-0.029,101.0,102.0,99.0,13.3,1505.2,330.3,-0.7,1.8,2470.553,13.28,0.025,350.9
2021-08-22T00:49:03,42.805,6.029,-0.009,0.011,0.008,102.0,102.0,100.0,13.4,1505.2,326.9,-0.7,1.8,2470.536,13.28,0.014,320.7
2021-08-22T00:52:03,42.805,6.029,-0.007,0.001,-0.01,99.0,100.0,100.0,13.4,1505.2,326.0,-0.7,1.9,2470.52,13.28,0.007,278.1
2021-08-22T00:55:03,42.805,6.029,0.001,0.003,0.0,99.0,101.0,100.0,13.3,1505.2,330.5,-0.8,1.8,2470.524,13.28,0.003,18.4
2021-08-22T00:58:03,42.805,6.029,0.007,0.015,0.014,101.0,102.0,100.0,13.4,1505.2,328.8,-0.8,1.8,2470.524,13.28,0.016,25.0
2021-08-22T01:04:03,42.805,6.029,-0.014,0.029,0.004,100.0,103.0,102.0,13.3,1505.2,327.3,-0.7,1.8,2470.563,13.28,0.032,334.2
2021-08-22T01:07:03,42.805,6.029,0.038,0.0,-0.01,99.0,101.0,100.0,13.4,1505.2,326.2,-0.7,1.8,2470.552,13.28,0.038,90.0
2021-08-22T01:10:03,42.805,6.029,0.008,0.002,0.0,99.0,101.0,100.0,13.4,1505.2,330.3,-0.7,1.9,2470.543,13.28,0.008,76.0
2021-08-22T01:13:03,42.805,6.029,0.005,0.005,0.006,102.0,98.0,99.0,13.4,1505.2,326.6,-0.7,1.8,2470.528,13.28,0.007,45.0
2021-08-22T01:16:03,42.805,6.029,-0.007,0.016,-0.003,98.0,102.0,101.0,13.4,1505.2,325.5,-0.7,1.9,2470.553,13.28,0.017,336.4
2021-08-22T01:19:03,42.805,6.029,0.0,0.016,0.002,100.0,101.0,99.0,13.4,1505.2,327.0,-0.8,1.9,2470.562,13.28,0.016,0.0
2021-08-22T01:22:03,42.805,6.029,-0.012,0.006,0.009,102.0,98.0,99.0,13.3,1505.2,326.3,-0.7,1.8,2470.494,13.28,0.013,296.6
2021-08-22T01:25:03,42.805,6.029,-0.024,0.011,-0.037,100.0,101.0,99.0,13.4,1505.2,327.4,-0.8,1.8,2470.537,13.29,0.026,294.6
2021-08-22T01:28:03,42.805,6.029,-0.001,0.002,0.015,100.0,101.0,100.0,13.3,1505.2,329.8,-0.8,1.8,2470.527,13.29,0.002,333.4
2021-08-22T01:31:03,42.805,6.029,0.004,-0.004,0.0,100.0,101.0,100.0,13.4,1505.2,331.1,-0.7,1.9,2470.518,13.29,0.005,135.0
2021-08-22T01:34:03,42.805,6.029,-0.009,0.008,0.009,100.0,100.0,100.0,13.4,1505.2,330.2,-0.7,1.8,2470.484,13.29,0.012,311.6
2021-08-22T01:37:03,42.805,6.029,0.008,-0.012,-0.025,101.0,101.0,100.0,13.4,1505.2,326.6,-0.8,1.8,2470.481,13.29,0.014,146.3
2021-08-22T01:40:03,42.805,6.029,0.012,0.0,0.012,100.0,100.0,100.0,13.4,1505.2,329.2,-0.8,1.8,2470.488,13.29,0.012,90.0
2021-08-22T01:43:03,42.805,6.029,-0.025,0.027,0.007,99.0,101.0,100.0,13.4,1505.2,325.4,-0.7,1.8,2470.486,13.29,0.036,317.2
2021-08-22T01:46:03,42.805,6.029,-0.015,0.025,0.009,100.0,102.0,99.0,13.3,1505.2,331.0,-0.7,1.8,2470.473,13.29,0.029,329.0
2021-08-22T01:49:03,42.805,6.029,-0.008,0.01,0.011,99.0,100.0,100.0,13.4,1505.2,327.3,-0.8,1.8,2470.535,13.29,0.012,321.3
2021-08-22T01:52:03,42.805,6.029,-0.002,-0.002,-0.014,100.0,101.0,100.0,13.4,1505.2,325.8,-0.8,1.8,2470.469,13.29,0.002,225.0
2021-08-22T01:55:03,42.805,6.029,-0.02,0.0,-0.013,100.0,101.0,99.0,13.4,1505.2,329.8,-0.8,1.8,2470.486,13.29,0.02,270.0
2021-08-22T01:58:03,42.805,6.029,-0.02,0.013,-0.008,100.0,102.0,100.0,13.3,1505.2,327.2,-0.8,1.8,2470.481,13.29,0.023,303.0
2021-08-22T02:04:03,42.805,6.029,0.014,0.0,-0.01,100.0,101.0,100.0,13.4,1505.2,326.0,-0.7,1.8,2470.511,13.28,0.014,90.0
2021-08-22T02:07:03,42.805,6.029,-0.015,0.004,-0.013,100.0,101.0,100.0,13.4,1505.2,325.7,-0.7,1.8,2470.52,13.28,0.015,284.9
2021-08-22T02:10:03,42.805,6.029,0.011,0.006,0.009,100.0,101.0,99.0,13.4,1505.2,330.5,-0.7,1.8,2470.518,13.28,0.012,61.4
2021-08-22T02:13:03,42.805,6.029,0.005,0.013,0.0,100.0,100.0,99.0,13.4,1505.2,328.9,-0.7,1.8,2470.516,13.28,0.013,21.0
2021-08-22T02:16:03,42.805,6.029,0.034,0.005,0.035,99.0,101.0,99.0,13.4,1505.2,325.2,-0.8,1.9,2470.529,13.29,0.034,81.6
2021-08-22T02:19:03,42.805,6.029,0.0,0.016,-0.009,100.0,102.0,100.0,13.4,1505.2,326.9,-0.8,1.9,2470.521,13.29,0.016,0.0
2021-08-22T02:22:03,42.805,6.029,0.012,0.009,0.008,101.0,101.0,99.0,13.3,1505.2,325.2,-0.8,1.8,2470.521,13.29,0.015,53.1
2021-08-22T02:25:03,42.805,6.029,0.009,0.002,0.012,99.0,101.0,100.0,13.4,1505.2,329.6,-0.7,1.8,2470.53,13.29,0.009,77.5
2021-08-22T02:28:03,42.805,6.029,-0.003,-0.002,-0.029,100.0,101.0,100.0,13.4,1505.2,329.5,-0.7,1.8,2470.489,13.29,0.003,236.3
2021-08-22T02:31:03,42.805,6.029,0.012,0.009,0.023,100.0,101.0,100.0,13.4,1505.2,326.1,-0.8,1.8,2470.517,13.29,0.015,53.1
2021-08-22T02:34:03,42.805,6.029,0.0,-0.001,-0.017,100.0,101.0,101.0,13.3,1505.2,329.7,-0.7,1.8,2470.501,13.29,0.001,180.0
2021-08-22T02:37:03,42.805,6.029,0.003,0.015,-0.001,100.0,100.0,100.0,13.4,1505.2,329.1,-0.7,1.8,2470.515,13.29,0.015,11.3
2021-08-22T02:40:03,42.805,6.029,-0.022,0.026,-0.008,100.0,101.0,99.0,13.3,1505.2,326.7,-0.7,1.8,2470.487,13.29,0.034,319.8
2021-08-22T02:43:03,42.805,6.029,0.023,0.011,0.027,101.0,99.0,100.0,13.3,1505.2,328.1,-0.7,1.8,2470.501,13.29,0.025,64.4
2021-08-22T02:46:03,42.805,6.029,0.002,0.015,0.006,98.0,102.0,99.0,13.4,1505.2,327.3,-0.8,1.8,2470.508,13.29,0.015,7.6
2021-08-22T02:49:03,42.805,6.029,-0.028,0.037,0.015,100.0,101.0,100.0,13.4,1505.2,327.0,-0.7,1.8,2470.452,13.29,0.046,322.9
2021-08-22T02:52:03,42.805,6.029,-0.013,0.017,0.015,99.0,101.0,100.0,13.4,1505.2,327.0,-0.8,1.8,2470.475,13.29,0.021,322.6
2021-08-22T02:55:03,42.805,6.029,0.023,-0.006,-0.024,100.0,102.0,99.0,13.3,1505.2,327.6,-0.7,1.8,2470.537,13.29,0.023,104.6
2021-08-22T02:58:03,42.805,6.029,0.003,0.006,0.027,100.0,102.0,100.0,13.3,1505.2,327.5,-0.7,1.8,2470.51,13.29,0.006,26.6
2021-08-22T03:04:03,42.805,6.029,-0.011,0.015,-0.007,99.0,101.0,101.0,13.4,1505.2,329.3,-0.7,1.8,2470.532,13.28,0.018,323.7
2021-08-22T03:07:03,42.805,6.029,0.02,0.009,-0.005,102.0,99.0,99.0,13.4,1505.2,325.5,-0.8,1.8,2470.503,13.28,0.021,65.8
2021-08-22T03:10:03,42.805,6.029,-0.029,0.022,-0.004,100.0,100.0,100.0,13.4,1505.2,327.5,-0.7,1.8,2470.544,13.28,0.036,307.2
2021-08-22T03:13:03,42.805,6.029,0.0,0.018,0.005,100.0,103.0,99.0,13.4,1505.2,325.7,-0.8,1.8,2470.537,13.28,0.018,0.0
2021-08-22T03:16:03,42.805,6.029,-0.014,0.001,-0.013,100.0,101.0,99.0,13.3,1505.2,326.7,-0.8,1.8,2470.547,13.28,0.014,274.1
2021-08-22T03:19:03,42.805,6.029,-0.003,0.014,-0.024,101.0,101.0,100.0,13.4,1505.2,329.5,-0.7,1.8,2470.496,13.29,0.014,347.9
2021-08-22T03:22:03,42.805,6.029,0.001,0.015,0.032,100.0,101.0,100.0,13.3,1505.2,327.9,-0.8,1.9,2470.53,13.29,0.015,3.8
2021-08-22T03:25:03,42.805,6.029,-0.002,0.013,-0.014,100.0,101.0,100.0,13.4,1505.2,325.7,-0.7,1.8,2470.578,13.29,0.013,351.3
2021-08-22T03:28:03,42.805,6.029,0.012,0.0,0.017,100.0,101.0,100.0,13.4,1505.2,326.7,-0.8,1.8,2470.52,13.29,0.012,90.0
2021-08-22T03:31:03,42.805,6.029,0.0,-0.012,-0.012,97.0,103.0,101.0,13.4,1505.2,331.3,-0.7,1.8,2470.558,13.29,0.012,180.0
2021-08-22T03:34:03,42.805,6.029,-0.012,0.006,0.015,102.0,100.0,100.0,13.4,1505.2,329.3,-0.8,1.8,2470.507,13.29,0.013,296.6
2021-08-22T03:37:03,42.805,6.029,0.006,0.023,0.042,101.0,101.0,100.0,13.4,1505.2,329.5,-0.8,1.8,2470.583,13.29,0.023,14.6
2021-08-22T03:40:03,42.805,6.029,-0.003,0.017,-0.003,101.0,101.0,100.0,13.4,1505.2,329.1,-0.8,1.8,2470.541,13.29,0.017,350.0
2021-08-22T03:43:03,42.805,6.029,-0.014,0.011,0.009,99.0,101.0,100.0,13.4,1505.2,329.4,-0.7,1.8,2470.528,13.29,0.017,308.2
2021-08-22T03:46:03,42.805,6.029,-0.02,0.0,-0.022,100.0,101.0,100.0,13.4,1505.2,328.6,-0.7,1.8,2470.543,13.29,0.02,270.0
2021-08-22T03:49:03,42.805,6.029,0.0,0.005,0.005,100.0,101.0,100.0,13.4,1505.2,326.0,-0.8,1.8,2470.531,13.29,0.005,0.0
2021-08-22T03:52:03,42.805,6.029,0.0,0.027,0.034,101.0,102.0,99.0,13.4,1505.2,328.8,-0.8,1.8,2470.563,13.29,0.026,0.0
2021-08-22T03:55:03,42.805,6.029,-0.015,0.03,0.02,99.0,102.0,100.0,13.3,1505.2,325.9,-0.7,1.8,2470.558,13.29,0.033,333.4
2021-08-22T03:58:03,42.805,6.029,-0.009,0.023,0.004,101.0,99.0,101.0,13.4,1505.2,329.6,-0.7,1.8,2470.552,13.29,0.024,338.6
2021-08-22T04:04:03,42.805,6.029,-0.016,0.014,0.022,99.0,102.0,100.0,13.4,1505.2,330.4,-0.8,1.8,2470.554,13.28,0.021,311.2
2021-08-22T04:07:03,42.805,6.029,-0.025,0.012,-0.038,99.0,102.0,99.0,13.4,1505.2,326.8,-0.7,1.8,2470.572,13.28,0.027,295.6
2021-08-22T04:10:03,42.805,6.029,-0.032,0.014,0.0,99.0,100.0,100.0,13.3,1505.2,325.3,-0.8,1.8,2470.57,13.28,0.034,293.6
2021-08-22T04:13:03,42.805,6.029,-0.021,0.037,0.039,101.0,101.0,99.0,13.4,1505.2,327.1,-0.8,1.8,2470.564,13.28,0.042,330.4
2021-08-22T04:16:03,42.805,6.029,-0.019,0.013,-0.018,99.0,100.0,101.0,13.3,1505.2,327.2,-0.8,1.8,2470.574,13.29,0.023,304.4
2021-08-22T04:19:03,42.805,6.029,-0.029,0.015,-0.05,100.0,101.0,100.0,13.4,1505.2,330.6,-0.7,1.8,2470.553,13.28,0.032,297.4
2021-08-22T04:22:03,42.805,6.029,-0.01,0.022,0.002,100.0,101.0,100.0,13.4,1505.2,325.4,-0.8,1.8,2470.546,13.29,0.024,335.6
2021-08-22T04:25:03,42.805,6.029,0.016,0.011,0.02,100.0,101.0,100.0,13.4,1505.2,327.9,-0.7,1.8,2470.56,13.29,0.019,55.5
2021-08-22T04:28:03,42.805,6.029,-0.015,-0.001,0.023,99.0,101.0,100.0,13.4,1505.2,325.3,-0.8,1.8,2470.591,13.29,0.015,266.2
2021-08-22T04:31:03,42.805,6.029,-0.006,0.026,0.004,99.0,101.0,100.0,13.4,1505.2,326.0,-0.7,1.8,2470.572,13.28,0.026,347.0
2021-08-22T04:34:03,42.805,6.029,-0.027,0.007,0.026,99.0,100.0,100.0,13.4,1505.2,327.5,-0.7,1.8,2470.563,13.28,0.027,284.5
2021-08-22T04:37:03,42.805,6.029,-0.007,-0.004,0.0,99.0,101.0,100.0,13.4,1505.2,330.4,-0.7,1.8,2470.593,13.28,0.008,240.3
2021-08-22T04:40:03,42.805,6.029,-0.013,0.009,0.007,100.0,101.0,100.0,13.4,1505.2,329.4,-0.8,1.8,2470.574,13.29,0.015,304.7
2021-08-22T04:43:03,42.805,6.029,0.014,0.028,0.012,101.0,101.0,99.0,13.4,1505.2,325.4,-0.8,1.8,2470.568,13.29,0.031,26.6
2021-08-22T04:46:03,42.805,6.029,-0.013,0.01,0.013,100.0,100.0,99.0,13.3,1505.2,326.6,-0.8,1.8,2470.567,13.28,0.016,307.6
2021-08-22T04:49:03,42.805,6.029,-0.028,0.005,-0.004,98.0,102.0,100.0,13.3,1505.2,327.0,-0.8,1.8,2470.629,13.28,0.028,280.1
2021-08-22T04:52:03,42.805,6.029,-0.017,0.023,0.0,100.0,101.0,100.0,13.3,1505.2,327.8,-0.7,1.8,2470.583,13.28,0.028,323.5
2021-08-22T04:55:03,42.805,6.029,-0.016,0.0,-0.019,100.0,101.0,99.0,13.4,1505.2,325.0,-0.8,1.8,2470.624,13.28,0.016,270.0
2021-08-22T04:58:03,42.805,6.029,-0.015,0.001,-0.022,99.0,102.0,99.0,13.4,1505.2,328.6,-0.7,1.8,2470.607,13.28,0.015,273.8
2021-08-22T05:04:03,42.805,6.029,-0.027,0.011,-0.008,97.0,102.0,101.0,13.4,1505.2,326.4,-0.8,1.8,2470.649,13.28,0.029,292.2
2021-08-22T05:07:03,42.805,6.029,-0.033,0.028,0.014,102.0,98.0,101.0,13.4,1505.2,329.4,-0.8,1.8,2470.606,13.28,0.043,310.3
2021-08-22T05:10:03,42.805,6.029,0.007,0.015,-0.016,99.0,102.0,100.0,13.4,1505.2,329.0,-0.8,1.8,2470.612,13.28,0.016,25.0
2021-08-22T05:13:03,42.805,6.029,-0.015,0.013,0.004,101.0,100.0,99.0,13.4,1505.2,328.3,-0.7,1.8,2470.659,13.28,0.019,310.9
2021-08-22T05:16:03,42.805,6.029,-0.009,0.0,0.014,99.0,101.0,100.0,13.4,1505.2,328.2,-0.7,1.8,2470.631,13.28,0.009,270.0
2021-08-22T05:19:03,42.805,6.029,-0.029,0.0,-0.002,101.0,101.0,99.0,13.4,1505.2,329.1,-0.7,1.8,2470.644,13.28,0.028,270.0
2021-08-22T05:22:03,42.805,6.029,-0.023,0.022,0.024,100.0,101.0,100.0,13.4,1505.2,327.2,-0.8,1.8,2470.619,13.28,0.031,313.7
2021-08-22T05:25:03,42.805,6.029,0.014,0.005,-0.017,99.0,100.0,99.0,13.4,1505.2,326.5,-0.7,1.8,2470.633,13.28,0.014,70.4
2021-08-22T05:28:03,42.805,6.029,-0.021,0.02,-0.015,100.0,101.0,102.0,13.4,1505.2,327.2,-0.7,1.8,2470.608,13.28,0.028,313.6
2021-08-22T05:31:03,42.805,6.029,-0.033,0.033,-0.013,100.0,99.0,100.0,13.3,1505.2,326.0,-0.7,1.8,2470.6,13.28,0.046,315.0
2021-08-22T05:34:03,42.805,6.029,0.007,0.014,0.008,99.0,99.0,102.0,13.3,1505.2,327.0,-0.7,1.8,2470.611,13.28,0.015,26.6
2021-08-22T05:37:03,42.805,6.029,-0.018,0.012,0.0,102.0,99.0,102.0,13.4,1505.2,327.6,-0.7,1.8,2470.584,13.28,0.021,303.7
2021-08-22T05:40:03,42.805,6.029,-0.022,0.018,0.017,99.0,101.0,99.0,13.4,1505.2,327.2,-0.8,1.8,2470.6,13.28,0.028,309.3
2021-08-22T05:43:03,42.805,6.029,-0.005,0.015,0.017,99.0,101.0,99.0,13.4,1505.2,329.3,-0.7,1.9,2470.593,13.28,0.015,341.6
2021-08-22T05:46:03,42.805,6.029,0.006,0.014,0.035,100.0,100.0,99.0,13.4,1505.2,326.7,-0.8,1.8,2470.627,13.28,0.015,23.2
2021-08-22T05:49:03,42.805,6.029,-0.014,0.021,0.031,100.0,102.0,99.0,13.4,1505.2,327.2,-0.8,1.8,2470.603,13.28,0.025,326.3
2021-08-22T05:52:03,42.805,6.029,-0.029,0.024,0.024,101.0,100.0,99.0,13.4,1505.2,325.4,-0.7,1.8,2470.635,13.28,0.037,309.6
2021-08-22T05:55:03,42.805,6.029,0.007,0.009,0.03,100.0,101.0,100.0,13.4,1505.2,327.3,-0.7,1.8,2470.644,13.28,0.011,37.9
2021-08-22T05:58:03,42.805,6.029,-0.005,0.014,-0.004,99.0,102.0,100.0,13.4,1505.2,325.1,-0.7,1.8,2470.652,13.28,0.014,340.4
2021-08-22T06:04:03,42.805,6.029,0.016,0.0,0.005,101.0,100.0,100.0,13.4,1505.2,327.0,-0.7,1.8,2470.655,13.28,0.016,90.0
2021-08-22T06:07:03,42.805,6.029,-0.012,0.022,0.002,100.0,101.0,100.0,13.4,1505.2,330.0,-0.7,1.8,2470.62,13.28,0.025,331.4
2021-08-22T06:10:03,42.805,6.029,-0.011,0.018,0.003,100.0,101.0,99.0,13.4,1505.2,329.5,-0.7,1.8,2470.596,13.28,0.021,328.6
2021-08-22T06:13:03,42.805,6.029,0.004,0.004,-0.005,99.0,101.0,100.0,13.4,1505.2,328.9,-0.8,1.8,2470.642,13.28,0.005,45.0
2021-08-22T06:16:03,42.805,6.029,-0.01,0.007,0.012,100.0,100.0,100.0,13.3,1505.2,329.0,-0.7,1.8,2470.646,13.28,0.012,305.0
2021-08-22T06:19:03,42.805,6.029,0.001,-0.004,-0.006,99.0,102.0,99.0,13.3,1505.2,329.9,-0.8,1.8,2470.632,13.28,0.004,166.0
2021-08-22T06:22:03,42.805,6.029,-0.008,0.027,0.009,99.0,102.0,99.0,13.4,1505.2,328.8,-0.8,1.8,2470.653,13.28,0.028,343.5
2021-08-22T06:25:03,42.805,6.029,0.003,0.019,0.012,100.0,100.0,101.0,13.3,1505.2,326.2,-0.7,1.9,2470.636,13.28,0.019,9.0
2021-08-22T06:28:03,42.805,6.029,-0.017,0.004,-0.022,100.0,101.0,99.0,13.3,1505.2,327.0,-0.8,1.8,2470.614,13.28,0.017,283.2
2021-08-22T06:31:03,42.805,6.029,0.009,0.0,0.018,100.0,100.0,100.0,13.4,1505.2,329.3,-0.8,1.8,2470.61,13.28,0.009,90.0
2021-08-22T06:34:03,42.805,6.029,-0.013,0.023,0.013,99.0,101.0,101.0,13.4,1505.2,325.3,-0.7,1.8,2470.631,13.28,0.026,330.5
2021-08-22T06:37:03,42.805,6.029,-0.014,0.035,0.003,100.0,99.0,101.0,13.4,1505.2,325.6,-0.8,1.8,2470.593,13.28,0.037,338.2
2021-08-22T06:40:03,42.805,6.029,-0.006,0.012,0.008,101.0,101.0,100.0,13.4,1505.2,325.3,-0.8,1.8,2470.614,13.28,0.013,333.4
2021-08-22T06:43:03,42.805,6.029,-0.007,0.001,-0.024,100.0,101.0,100.0,13.4,1505.2,326.0,-0.8,1.8,2470.612,13.29,0.007,278.1
2021-08-22T06:46:03,42.805,6.029,-0.02,-0.006,-0.01,99.0,102.0,100.0,13.3,1505.2,327.9,-0.8,1.8,2470.618,13.28,0.02,253.3
2021-08-22T06:49:03,42.805,6.029,-0.001,0.003,-0.009,100.0,102.0,100.0,13.3,1505.2,328.7,-0.8,1.8,2470.618,13.28,0.003,341.6
2021-08-22T06:52:03,42.805,6.029,-0.013,0.026,0.009,100.0,99.0,100.0,13.3,1505.2,330.6,-0.7,1.8,2470.62,13.28,0.029,333.4
2021-08-22T06:55:03,42.805,6.029,-0.02,0.014,0.011,100.0,101.0,100.0,13.4,1505.2,329.0,-0.8,1.8,2470.609,13.28,0.024,305.0
2021-08-22T06:58:03,42.805,6.029,0.001,0.0,0.014,100.0,100.0,100.0,13.4,1505.2,326.1,-0.8,1.8,2470.578,13.29,0.001,90.0
2021-08-22T07:04:03,42.805,6.029,-0.011,0.006,-0.015,102.0,102.0,99.0,13.3,1505.2,328.5,-0.8,1.8,2470.634,13.28,0.012,298.6
2021-08-22T07:07:03,42.805,6.029,-0.025,0.008,0.015,100.0,99.0,100.0,13.4,1505.2,326.3,-0.7,1.8,2470.629,13.28,0.026,287.7
2021-08-22T07:10:03,42.805,6.029,-0.015,0.0,0.005,101.0,100.0,99.0,13.4,1505.2,325.8,-0.7,1.8,2470.633,13.28,0.015,270.0
2021-08-22T07:13:03,42.805,6.029,-0.005,0.041,0.038,99.0,101.0,100.0,13.4,1505.2,328.6,-0.8,1.8,2470.62,13.28,0.041,353.0
2021-08-22T07:16:03,42.805,6.029,-0.026,0.047,0.058,99.0,101.0,99.0,13.4,1505.2,327.8,-0.8,1.8,2470.617,13.28,0.053,331.0
2021-08-22T07:19:03,42.805,6.029,-0.011,0.011,0.001,100.0,101.0,100.0,13.4,1505.2,330.8,-0.8,1.8,2470.608,13.28,0.015,315.0
2021-08-22T07:22:03,42.805,6.029,0.011,0.007,0.025,100.0,101.0,100.0,13.3,1505.2,329.1,-0.7,1.8,2470.597,13.28,0.013,57.5
2021-08-22T07:25:03,42.805,6.029,-0.033,0.023,0.006,100.0,100.0,100.0,13.4,1505.2,326.4,-0.7,1.8,2470.596,13.28,0.04,304.9
2021-08-22T07:28:03,42.805,6.029,-0.007,0.002,-0.019,99.0,99.0,100.0,13.4,1505.2,327.3,-0.7,1.8,2470.593,13.28,0.007,285.9
2021-08-22T07:31:03,42.805,6.029,-0.022,0.005,-0.006,101.0,101.0,100.0,13.4,1505.2,330.5,-0.7,1.8,2470.576,13.28,0.022,282.8
2021-08-22T07:34:03,42.805,6.029,-0.003,0.021,-0.018,100.0,102.0,101.0,13.4,1505.2,329.4,-0.7,1.8,2470.611,13.28,0.021,351.9
2021-08-22T07:37:03,42.805,6.029,-0.009,0.009,0.007,101.0,100.0,102.0,13.4,1505.2,327.2,-0.7,1.8,2470.595,13.28,0.012,315.0
2021-08-22T07:40:03,42.805,6.029,-0.001,0.01,0.003,100.0,101.0,100.0,13.3,1505.2,329.0,-0.7,1.8,2470.58,13.29,0.01,354.3
2021-08-22T07:43:03,42.805,6.029,-0.012,0.001,-0.021,101.0,100.0,99.0,13.4,1505.2,326.6,-0.8,1.8,2470.619,13.29,0.012,274.8
2021-08-22T07:46:03,42.805,6.029,-0.008,0.022,-0.006,101.0,100.0,100.0,13.3,1505.2,328.9,-0.8,1.8,2470.578,13.28,0.023,340.0
2021-08-22T07:49:03,42.805,6.029,-0.002,0.004,-0.006,101.0,102.0,99.0,13.4,1505.2,329.6,-0.7,1.9,2470.598,13.29,0.004,333.4
2021-08-22T07:52:03,42.805,6.029,-0.021,0.027,0.05,100.0,101.0,100.0,13.3,1505.2,327.9,-0.8,1.8,2470.608,13.29,0.034,322.1
2021-08-22T07:55:03,42.805,6.029,-0.028,0.028,-0.007,101.0,99.0,99.0,13.4,1505.2,326.0,-0.7,1.8,2470.604,13.29,0.039,315.0
2021-08-22T07:58:03,42.805,6.029,-0.017,0.009,-0.014,98.0,100.0,101.0,13.3,1505.2,328.3,-0.7,1.8,2470.562,13.28,0.019,297.9
2021-08-22T08:04:03,42.805,6.029,-0.014,0.009,0.012,100.0,102.0,100.0,13.4,1505.2,328.2,-0.8,1.8,2470.614,13.28,0.016,302.7
2021-08-22T08:07:03,42.805,6.029,0.003,-0.03,-0.024,102.0,100.0,101.0,13.4,1505.2,328.1,-0.7,1.8,2470.603,13.28,0.03,174.3
2021-08-22T08:10:03,42.805,6.029,-0.028,0.017,-0.023,100.0,101.0,101.0,13.4,1505.2,329.3,-0.8,1.8,2470.617,13.28,0.032,301.3
2021-08-22T08:13:03,42.805,6.029,-0.013,-0.006,-0.005,99.0,100.0,100.0,13.4,1505.2,330.5,-0.7,1.8,2470.622,13.28,0.014,245.2
2021-08-22T08:16:03,42.805,6.029,-0.025,0.013,0.009,100.0,101.0,99.0,13.4,1505.2,326.6,-0.7,1.9,2470.612,13.28,0.028,297.5
2021-08-22T08:19:03,42.805,6.029,-0.011,0.022,0.0,98.0,102.0,100.0,13.3,1505.2,324.8,-0.8,1.8,2470.621,13.28,0.024,333.4
2021-08-22T08:22:03,42.805,6.029,-0.004,0.003,0.021,101.0,99.0,99.0,13.4,1505.2,328.0,-0.7,1.8,2470.583,13.28,0.005,306.9
2021-08-22T08:25:03,42.805,6.029,-0.034,0.019,-0.01,100.0,101.0,100.0,13.3,1505.2,330.6,-0.7,1.8,2470.592,13.28,0.038,299.2
2021-08-22T08:28:03,42.805,6.029,-0.008,0.021,0.016,100.0,101.0,99.0,13.4,1505.2,328.4,-0.8,1.8,2470.605,13.28,0.022,339.1
2021-08-22T08:31:03,42.805,6.029,-0.037,0.037,-0.002,100.0,100.0,100.0,13.4,1505.2,329.6,-0.8,1.8,2470.597,13.28,0.052,315.0
2021-08-22T08:34:03,42.805,6.029,-0.016,0.024,0.031,100.0,101.0,99.0,13.4,1505.2,327.6,-0.8,1.8,2470.588,13.28,0.028,326.3
2021-08-22T08:37:03,42.805,6.029,-0.002,0.025,0.004,100.0,100.0,99.0,13.4,1505.2,331.1,-0.8,1.8,2470.582,13.28,0.025,355.4
2021-08-22T08:40:03,42.805,6.029,0.009,0.009,0.014,100.0,101.0,100.0,13.4,1505.2,329.4,-0.8,1.8,2470.603,13.28,0.012,45.0
2021-08-22T08:43:03,42.805,6.029,-0.004,0.013,-0.008,99.0,101.0,101.0,13.4,1505.2,329.8,-0.8,1.9,2470.61,13.28,0.013,342.9
2021-08-22T08:46:03,42.805,6.029,-0.008,0.029,-0.021,100.0,99.0,99.0,13.4,1505.2,329.8,-0.7,1.8,2470.579,13.28,0.03,344.6
2021-08-22T08:49:03,42.805,6.029,-0.013,0.008,-0.018,101.0,101.0,100.0,13.3,1505.2,326.9,-0.8,1.8,2470.565,13.28,0.015,301.6
2021-08-22T08:52:03,42.805,6.029,-0.027,0.034,0.0,100.0,101.0,99.0,13.3,1505.2,326.9,-0.7,1.9,2470.635,13.28,0.043,321.5
2021-08-22T08:55:03,42.805,6.029,-0.004,0.032,0.018,101.0,99.0,100.0,13.4,1505.2,326.4,-0.7,1.8,2470.604,13.28,0.032,352.9
2021-08-22T08:58:03,42.805,6.029,-0.021,-0.002,0.004,100.0,101.0,100.0,13.4,1505.2,325.8,-0.7,1.8,2470.554,13.28,0.021,264.6
2021-08-22T09:04:03,42.805,6.029,0.017,-0.024,-0.026,101.0,101.0,99.0,13.3,1505.2,327.1,-0.8,1.8,2470.615,13.28,0.029,144.7
2021-08-22T09:07:03,42.805,6.029,-0.045,0.025,0.005,98.0,102.0,100.0,13.3,1505.2,329.3,-0.8,1.8,2470.62,13.28,0.051,299.1
2021-08-22T09:10:03,42.805,6.029,-0.047,0.012,-0.042,99.0,100.0,101.0,13.4,1505.2,327.7,-0.8,1.8,2470.593,13.28,0.048,284.3
2021-08-22T09:13:03,42.805,6.029,-0.006,0.013,-0.018,102.0,101.0,100.0,13.3,1505.2,325.6,-0.7,1.8,2470.638,13.28,0.014,335.2
2021-08-22T09:16:03,42.805,6.029,-0.016,-0.003,-0.018,100.0,102.0,98.0,13.4,1505.2,328.6,-0.8,1.8,2470.62,13.28,0.016,259.4
2021-08-22T09:19:03,42.805,6.029,-0.021,0.025,0.001,100.0,100.0,101.0,13.4,1505.2,330.9,-0.8,1.8,2470.593,13.28,0.032,320.0
2021-08-22T09:22:03,42.805,6.029,-0.024,0.008,-0.029,98.0,102.0,100.0,13.4,1505.2,328.5,-0.7,1.9,2470.601,13.28,0.025,288.4
2021-08-22T09:25:03,42.805,6.029,-0.021,0.011,0.044,98.0,102.0,99.0,13.3,1505.2,330.7,-0.7,1.8,2470.555,13.28,0.023,297.6
2021-08-22T09:28:03,42.805,6.029,-0.019,0.008,0.021,99.0,101.0,99.0,13.4,1505.2,329.0,-0.7,1.8,2470.614,13.28,0.02,292.8
2021-08-22T09:31:03,42.805,6.029,-0.003,0.018,0.015,101.0,100.0,100.0,13.4,1505.2,330.4,-0.7,1.8,2470.545,13.28,0.018,350.5
2021-08-22T09:34:03,42.805,6.029,-0.027,0.018,0.027,98.0,101.0,100.0,13.3,1505.2,327.4,-0.8,1.8,2470.544,13.28,0.032,303.7
2021-08-22T09:37:03,42.805,6.029,-0.021,0.023,0.007,100.0,101.0,99.0,13.4,1505.2,327.7,-0.7,1.8,2470.539,13.28,0.031,317.6
2021-08-22T09:40:03,42.805,6.029,-0.022,0.035,-0.001,100.0,102.0,99.0,13.4,1505.2,326.5,-0.8,1.8,2470.542,13.28,0.041,327.8
2021-08-22T09:43:03,42.805,6.029,0.002,-0.001,-0.013,100.0,100.0,100.0,13.4,1505.2,328.5,-0.8,1.8,2470.589,13.28,0.002,116.6
2021-08-22T09:46:03,42.805,6.029,0.025,0.005,0.004,100.0,100.0,100.0,13.4,1505.2,325.7,-0.8,1.8,2470.546,13.28,0.025,78.7
2021-08-22T09:49:03,42.805,6.029,-0.037,0.038,0.003,100.0,100.0,99.0,13.3,1505.2,329.0,-0.8,1.8,2470.542,13.28,0.053,315.8
2021-08-22T09:52:03,42.805,6.029,-0.004,0.015,-0.011,100.0,100.0,100.0,13.3,1505.2,331.3,-0.7,1.8,2470.533,13.28,0.015,345.1
2021-08-22T09:55:03,42.805,6.029,-0.036,0.013,-0.016,99.0,101.0,100.0,13.4,1505.2,327.0,-0.7,1.8,2470.52,13.28,0.038,289.9
2021-08-22T09:58:03,42.805,6.029,0.013,0.023,-0.007,100.0,101.0,99.0,13.4,1505.2,330.3,-0.7,1.8,2470.541,13.28,0.026,29.5
2021-08-22T10:04:03,42.805,6.029,0.004,-0.025,-0.009,100.0,100.0,100.0,13.4,1505.2,329.5,-0.8,1.8,2470.571,13.28,0.025,170.9